Вернуться в каталог

STARLINK-35929

АктивенСвязьVLEO
NORAD 66625·PAYLOAD·🇺🇸 United States

Запущен Nov 23, 2025 с Vandenberg Space Force Base

Loading…

Ближайшие Пролёты (ближайшие 24 часа)

TLE

СвежийSource: CelesTrak SupGP

Эпоха: Sep 14, 2026, 22:49 UTC

1 66625C 25271J   26257.95118056  .00010312  00000+0  30465-3 0  2573
2 66625  53.1597 335.7159 0001243  76.0875 355.5109 15.34386999    19

Отслеживайте STARLINK-35929 в реальном времени с AllMySat

Download on the App Store